Location: Utrecht
(52.0907°N, 5.1214°E)
Time: 12:20:25
(UTC+02:00)

NANOSAT C BR1 - Pass Details

Date: 02 July 2022
Orbit: 584 x 599 km, 98.0° (Epoch: 13 August)

Event Time Altitude Azimuth Distance (km) Brightness Sun altitude
Rises 03:19:09 0° 20° (NNE) 2,851 ? -12.0°
Reaches altitude 10° 03:21:29 10° 30° (NNE) 1,946 ? -11.9°
Maximum altitude 03:25:23 36° 97° (E) 965 ? -11.6°
Drops below altitude 10° 03:29:16 10° 164° (SSE) 1,938 ? -11.4°
Enters shadow 03:29:25 - 165° (SSE) 1,992 ? -11.4°
